Regional Weather Roundup
Issued by NWS San Diego, CA

Home | Current Version | Previous Version | Text Only | Print | Product List | Glossary On
Versions: 1 2 3 4 5 6 7 8 9 10 11 12 13 14 15 16 17 18 19 20 21 22 23 24 25 26 27 28 29 30 31 32 33 34 35 36 37 38 39 40 41 42 43 44 45 46 47 48 49 50
000
ASUS46 KSGX 250310
RWRSGX

SAN DIEGO HOURLY WEATHER ROUNDUP
NATIONAL WEATHER SERVICE SAN DIEGO CA
800 PM PDT FRI OCT 24 2014

NOTE: "FAIR" INDICATES FEW OR NO CLOUDS BELOW 12,000 FEET WITH NO
SIGNIFICANT WEATHER AND/OR OBSTRUCTIONS TO VISIBILITY.

CAZ042-043-060-061-PZZ750-775-250400-

GREATER SAN DIEGO AREA

CITY           SKY/WX    TMP DP  RH WIND       PRES   REMARKS
LINDBERGH FLD  CLEAR     76  57  51 CALM      29.96R
POINT LOMA       N/A     76  45  32 NE3         N/A
NATIONAL CITY    N/A     74  64  69 CALM      29.96R
CHULA VISTA      N/A     72  65  77 CALM      29.88R
IMPERIAL BEACH CLEAR     66  62  87 CALM      29.96R
BROWN FIELD    CLEAR     77  42  28 CALM      29.97R
MIRAMAR MCAS   CLEAR     73  36  25 E6        29.96R
MONTGOMERY FLD CLEAR     77  49  37 CALM      29.97R

$$

NORTH SAN DIEGO COUNTY

CITY           SKY/WX    TMP DP  RH WIND       PRES   REMARKS
CAMP PENDLETON CLEAR     68  56  65 CALM      29.95R
OCEANSIDE AP   CLEAR     67  56  67 NE3       29.94R
OCEANSIDE HBR    N/A     70  62  76 E2        29.97R
VISTA            N/A     71  47  42 CALM      29.93S
CARLSBAD       CLEAR     75  45  34 E3        29.95R
DEL MAR          N/A     69  57  64 CALM      29.97R
LA JOLLA SCRIP   N/A     71  59  65 CALM      29.92S
FALLBROOK        N/A     75  29  18 CALM      29.95R
ESCONDIDO        N/A     76  44  31 CALM      29.98R
SAN MARCOS       N/A     77  33  20 CALM      29.93R
POWAY            N/A     71  43  37 CALM      29.97R

$$

EAST SAN DIEGO COUNTY

CITY           SKY/WX    TMP DP  RH WIND       PRES   REMARKS
RAMONA         CLEAR     67  32  27 CALM      30.01R
SANTEE LAKES     N/A     73  41  31 CALM      29.97R
LA MESA          N/A     78  36  22 N2        29.89R
JAMUL            N/A     71  41  33 CALM      29.96R
DESCANSO N       N/A     61  38  43 E5        29.89R
MT. LAGUNA OBS   N/A     58  36  43 NW3       29.79R
CAMPO            N/A     65  38  36 CALM      30.04R

$$

ORANGE COUNTY AND THE LOS ANGELES BASIN

CITY           SKY/WX    TMP DP  RH WIND       PRES   REMARKS
JOHN WAYNE AP  CLEAR     74  63  68 W3        29.94R
LAKE FOREST FR   N/A     76  33  20 CALM      29.84S
SANTA ANA        N/A     71  57  61 CALM      29.90R
HUNTINGTON BCH   N/A     69  66  91 CALM      29.97R
LOS ALAMITOS   CLEAR     68  65  89 S2        29.95R
FULLERTON      CLEAR     74  58  57 SW3       29.94R
LONG BEACH     CLEAR     73  58  59 CALM      29.94R
L.A. AP        CLEAR     69  67  93 W7        29.95R
L.A. DOWNTOWN  CLEAR     72  54  53 CALM      29.95R

$$

THE INLAND EMPIRE

CITY           SKY/WX    TMP DP  RH WIND       PRES   REMARKS
CORONA         PTCLDY    73  40  30 CALM      29.97R
CHINO          CLEAR     73  37  27 W7        29.98R
ONTARIO        CLEAR     78  26  14 W8        29.97R
SAN BERNARDINO CLEAR    N/A N/A N/A CALM      29.99R
RIVERSIDE AP   CLEAR     78  27  15 CALM      29.98R
RIV CYN CREST    N/A     77  48  35 SE1       29.95S
MORENO VALLEY    N/A     74  42  32 CALM      29.19R
MARCH ARB      CLEAR     69  33  26 CALM      30.01R
HORSETHIEF CYN   N/A     74  33  22 S1        29.98R
PERRIS           N/A     76  39  26 SE1       29.97R
MENIFEE          N/A     76  39  25 S1        30.05R
HEMET EAST       N/A     74  33  22 CALM      29.97R
FRENCH VALLEY  FAIR      73  32  21 CALM      30.01R
TEMECULA         N/A     76  33  21 SW1       29.96R

$$

SAN BERNARDINO AND RIVERSIDE COUNTY MOUNTAINS

CITY           SKY/WX    TMP DP  RH WIND       PRES   REMARKS
BIG BEAR AP    CLEAR     46  28  49 CALM      30.27S
PINE COVE        N/A     55  38  52 CALM      29.88R

$$

SOUTHERN DESERT INCLUDING THE COACHELLA VALLEY

CITY           SKY/WX    TMP DP  RH WIND       PRES   REMARKS
PALM SPRINGS   CLEAR     84  47  27 CALM      29.94R
THOUSAND PALMS   N/A     79  48  33 NE2       29.88R
PALM DESERT      N/A     81  54  39 CALM      31.42S
THERMAL        PTCLDY    74  51  44 N3        29.87R
BLYTHE         CLEAR     84  48  28 SE6       29.90R
IMPERIAL AP    CLEAR     79  52  38 CALM      29.87R
EL CENTRO NAS  CLEAR     83  45  26 CALM      29.88R
YUMA AZ        CLEAR     84  44  24 S3        29.89R
MEXICALI       CLEAR     82  43  24 SE5       29.89

$$

UPPER DESERT

CITY           SKY/WX    TMP DP  RH WIND       PRES   REMARKS
VICTORVILLE AP CLEAR     73  28  19 SE13      30.04R
HESPERIA         N/A     71  36  28 SW7       30.07R
APPLE VALLEY     N/A     72  32  23 S2        30.10R
PALMDALE       CLEAR     73  28  18 S20       30.03R
LANCASTER      CLEAR     69  30  23 VRB6      30.02R
EDWARDS AFB    CLEAR     74  28  18 SW18      29.98R
DAGGETT        CLEAR     80  35  19 SW6       29.97R
29 PALMS N     CLEAR     75  38  26 SW9       30.06R
NEEDLES        CLEAR     83  38  20 W7        29.93S

$$

REGIONAL REPORTS

CITY           SKY/WX    TMP DP  RH WIND       PRES   REMARKS
SANTA BARBARA  CLEAR     63  58  83 CALM      29.95R
SANDBERG       CLEAR     63  31  30 S14       30.12R
MT. WILSON       N/A     57  34  41 SW10        N/A
LAS VEGAS NV   CLEAR     81  35  19 S8        29.97R
PHOENIX AZ     CLEAR     85  49  28 CALM      29.95R
TIJUANA        CLEAR     73  41  31 CALM      29.99R
ENSENADA NW      N/A     74  32  21 NE9       29.93R

$$

OFFSHORE ISLANDS

CITY           SKY/WX    TMP DP  RH WIND       PRES   REMARKS
CATALINA ARPT  CLEAR     72  28  19 SW3       30.01R
SAN NICOLAS IS CLEAR    N/A N/A N/A W9        29.97R

$$

MARINE AND OFFSHORE BUOY REPORTS

STATION/POSITION SKY/WX   TEMP    WIND        PRES    SWELL
                          AIR SEA DIR/SP/G            HT/PER/DIR
                          (F)     (DEG/KT/KT) (MB)    (FT/S/D)
TANNER BANKS               65 69  300/  8/ 12 1014.8R   7/320/12
S CLEMENTE BASIN           70 71  320/  6/  8 1014.3R   5/290/12
SAN NICOLAS IS.               67                N/A     5/300/13
SO. S. ROSA ISLA           65 70  310/ 12/ 16 1013.9R   7/12
W. S. BARBARA CH           63 65  310/ 12/ 14 1013.8R   7/310/12
M. S. BARBARA CH           65     270/  8       N/A
S. MONICA BASIN            63 70  270/  4/  6 1014.1R   3/280/11
S PEDRO CHANNEL               71                N/A     2/270/11
DANA POINT                    71                N/A     2/280/12
CMP PENDLETON NS              72                N/A     2/240/13
OCEANSIDE OFFSHR              72                N/A     2/220/15
TORREY PINES OTR              72                N/A     2/280/11
LA JOLLA 1                 70 71  180/  1/  3 1014.2R
MISSION BAY BUOY              72                N/A     3/270/13
SAN DIEGO BAY                 74              1014.8R
POINT LOMA SOUTH              72                N/A     2/260/13

$$




USA.gov is the U.S. government's official web portal to all federal, state and local government web resources and services.